View from above orbital plane
|
View from above satellite
|
Ground track
|
The orbit data is extracted from the following two-line orbital elements,
1 25861U 99039B 21101.90281037 .00000025 00000-0 10951-4 0 9994
2 25861 98.2082 115.9708 0014305 280.3628 144.5795 14.78631786171720
Epoch (UTC): | 11 April 2021 21:40:02 |
Eccentricity: | 0.0014305 |
inclination: | 98.2082° |
perigee height: | 623 km |
apogee height: | 643 km |
right ascension of ascending node: | 115.9708° |
argument of perigee: | 280.3628° |
revolutions per day: | 14.78631786 |
mean anomaly at epoch: | 144.5795° |
orbit number at epoch: | 17172 |
The dashed part of the orbit path shows where the satellite is in the earth's shadow,
|
|